YAOGAN-41

Last updated on Wed Sep 17 2025 00:02:51 GMT+0000 (Coordinated Universal Time)

1 58582U 23197A 25259.67658527 -.00000382 00000+0 00000+0 0 9991 2 58582 3.6543 309.7261 0015002 200.7444 212.1145 1.00269375 6586
UTC large
Height (km)
Speed (km/s)
/
Latitude / Longitude
Inclination (degrees)
Orbital Period (minutes)
Azimuth
Elevation
Range (km)
Doppler Factor

Next 0 passes for location: London (51.5072 / 0.1276)

Sorry there are no passes over London.